Regional Weather Roundup
Issued by NWS

Home | Current Version | Previous Version | Text Only | Print | Product List | Glossary Off
Versions: 1 2 3 4 5 6 7 8 9 10 11 12 13 14 15 16 17 18 19 20 21 22 23 24 25 26 27 28 29 30 31 32 33 34 35 36 37 38 39 40 41 42 43 44 45 46 47 48 49 50

000
ASUS43 KOAX 271510
RWRNE

WEATHER ROUNDUP FOR NEBRASKA
NATIONAL WEATHER SERVICE OMAHA NE
1000 AM CDT FRI MAY 27 2016

NOTES: SATELLITE DATA IS BEING USED TO AUGMENT CLOUD COVER ABOVE
       12000 FEET.
       "FAIR" INDICATES FEW OR NO CLOUDS BELOW 12,000 FEET WITH NO
       SIGNIFICANT WEATHER AND/OR OBSTRUCTIONS TO VISIBILITY.

  * THESE STATIONS DO NOT REPORT WEATHER SUCH AS RAIN...SNOW OR FOG.

NEZ001>004-019>022-054>056-271600-
NEBRASKA PANHANDLE

CITY           SKY/WX    TMP DP  RH WIND       PRES   REMARKS
SCOTTSBLUFF    CLOUDY    56  44  64 N12       29.87R
ALLIANCE       RAIN      50  49  96 NE9       29.87R FOG
CHADRON        PTSUNNY   57  44  62 CALM      29.86S
KIMBALL        DRIZZLE   49  48  96 N10       29.89R
SIDNEY         RAIN      51  50  96 N13       29.85R FOG
$$

NEZ057>060-069>072-079>082-271600-
SOUTHWEST NEBRASKA

CITY           SKY/WX    TMP DP  RH WIND       PRES   REMARKS
NORTH PLATTE   CLOUDY    60  54  80 NW3       29.80R
IMPERIAL       CLOUDY    57  53  86 NE9       29.78R
LEXINGTON      CLOUDY    60  56  85 NE9       29.78S
MCCOOK         CLOUDY    59  54  83 E9        29.76R
OGALLALA       CLOUDY    56  53  88 N10       29.81R
$$

NEZ005>010-023>029-035>040-094-271600-
NORTH CENTRAL NEBRASKA

CITY           SKY/WX    TMP DP  RH WIND       PRES   REMARKS
VALENTINE      LGT RAIN  56  53  90 NW6       29.83S
AINSWORTH      CLOUDY    57  53  85 N10       29.83R
BROKEN BOW     CLOUDY    64  52  64 N3        29.78F
O`NEILL        CLOUDY    65  58  78 CALM      29.78F
ORD            MOSUNNY   66  54  65 NW5       29.75F
THEDFORD       CLOUDY    59  54  82 N6        29.83R
$$

NEZ041-046>049-061>064-073>077-083>087-271600-
SOUTH CENTRAL NEBRASKA

CITY           SKY/WX    TMP DP  RH WIND       PRES   REMARKS
GRAND ISLAND   CLOUDY    64  56  75 E7        29.77S
AURORA         CLOUDY    65  60  82 NE6       29.76S
HASTINGS       TSTM      60  57  89 E8        29.78R
HEBRON         CLOUDY    64  60  87 NE6       29.77R
HOLDREGE       CLOUDY    59  55  88 NE8       29.78R
KEARNEY *      CLOUDY    63  55  77 NE9       29.79S
YORK           PTSUNNY   64  59  82 NE12      29.77S
$$

NEZ011>018-030>034-042>045-271600-
NORTHEAST NEBRASKA

CITY           SKY/WX    TMP DP  RH WIND       PRES   REMARKS
NORFOLK        MOSUNNY   66  57  72 E6        29.76F
ALBION         CLOUDY    66  56  70 NE5       29.76F
BLAIR          MOSUNNY   68  61  77 E9        29.77R
FREMONT        MOSUNNY   69  59  71 SE5       29.77S
TEKAMAH        PTSUNNY   70  58  65 CALM      29.76F
WAYNE          CLOUDY    65  60  83 SE3       29.78S
$$

NEZ050>053-065>068-078-088>093-271600-
SOUTHEAST NEBRASKA

CITY           SKY/WX    TMP DP  RH WIND       PRES   REMARKS
LINCOLN        PTSUNNY   67  59  75 NE5       29.77S
OMAHA EPPLEY   PTSUNNY   68  60  75 NE8       29.76S
BEATRICE       CLOUDY    64  59  82 E5        29.76S
FALLS CITY     CLOUDY    67  62  84 CALM      29.73R
NEBRASKA CITY  MOSUNNY   66  62  85 NE6       29.76R
PLATTSMOUTH    MOSUNNY   68  63  83 NE8       29.76S
$$

NEZ044-045-051>053-067-271600-
OMAHA AREA

CITY           SKY/WX    TMP DP  RH WIND       PRES   REMARKS
OMAHA EPPLEY   PTSUNNY   68  60  75 NE8       29.76S
BLAIR          MOSUNNY   68  61  77 E9        29.77R
FREMONT        MOSUNNY   69  59  71 SE5       29.77S
MILLARD        CLOUDY    68  60  74 CALM      29.76S
OFFUTT AFB     MOSUNNY   69  62  78 NE7       29.75S
PLATTSMOUTH    MOSUNNY   68  63  83 NE8       29.76S
WAHOO          PTSUNNY   68  60  75 NE3       29.77S
$$




USA.gov is the U.S. government's official web portal to all federal, state and local government web resources and services.